| time (UTC) | temp C | wind direction | speed KPH | gust KPH | rain 1hr cm | rain 24hr cm | rain mn cm | humidity % | barometer mb |
| 20260507153024 | 13 | 190 | 0.0 | 8.0 | 0.00 | 0.00 | 0.00 | 70 | 1014.7 |
| 20260507151508 | 13 | 189 | 0.0 | 3.2 | 0.00 | 0.00 | 0.00 | 70 | 1014.8 |
| 20260507150012 | 13 | 189 | 0.0 | 8.0 | 0.00 | 0.00 | 0.00 | 70 | 1014.9 |
| 20260507144525 | 13 | 180 | 0.0 | 4.8 | 0.00 | 0.00 | 0.00 | 70 | 1014.9 |
| 20260507143022 | 13 | 182 | 0.0 | 6.4 | 0.00 | 0.00 | 0.00 | 69 | 1014.9 |
| 20260507141529 | 14 | 182 | 1.6 | 9.7 | 0.00 | 0.00 | 0.00 | 67 | 1015.0 |
| 20260507140008 | 14 | 182 | 0.0 | 12.9 | 0.00 | 0.00 | 0.00 | 66 | 1015.1 |
| 20260507134513 | 15 | 143 | 0.0 | 6.4 | 0.00 | 0.00 | 0.00 | 65 | 1015.0 |
| 20260507133019 | 15 | 206 | 0.0 | 12.9 | 0.00 | 0.00 | 0.00 | 64 | 1015.0 |
| 20260507131528 | 15 | 232 | 0.0 | 9.7 | 0.00 | 0.00 | 0.00 | 66 | 1015.1 |
| 20260507130032 | 14 | 195 | 0.0 | 1.6 | 0.00 | 0.00 | 0.00 | 67 | 1015.2 |
| 20260507124516 | 14 | 195 | 0.0 | 4.8 | 0.00 | 0.00 | 0.00 | 64 | 1015.3 |
| 20260507123017 | 15 | 195 | 1.6 | 14.5 | 0.00 | 0.00 | 0.00 | 62 | 1015.4 |
| 20260507121520 | 15 | 251 | 1.6 | 12.9 | 0.00 | 0.00 | 0.00 | 61 | 1015.3 |
| 20260507120026 | 16 | 246 | 3.2 | 12.9 | 0.00 | 0.00 | 0.00 | 60 | 1015.3 |
| 20260507114528 | 15 | 242 | 1.6 | 11.3 | 0.00 | 0.00 | 0.00 | 62 | 1015.4 |
| 20260507113011 | 15 | 214 | 3.2 | 16.1 | 0.00 | 0.00 | 0.00 | 61 | 1015.3 |
| 20260507111516 | 15 | 187 | 0.0 | 6.4 | 0.00 | 0.00 | 0.00 | 63 | 1015.4 |
| 20260507110025 | 15 | 274 | 4.8 | 16.1 | 0.00 | 0.00 | 0.00 | 63 | 1015.5 |
| 20260507104524 | 15 | 215 | 8.0 | 22.5 | 0.00 | 0.00 | 0.00 | 60 | 1015.5 |
| 20260507103027 | 15 | 158 | 4.8 | 16.1 | 0.00 | 0.00 | 0.00 | 61 | 1015.6 |
| 20260507101518 | 15 | 157 | 3.2 | 14.5 | 0.00 | 0.00 | 0.00 | 68 | 1015.6 |
| 20260507100018 | 14 | 196 | 6.4 | 12.9 | 0.00 | 0.00 | 0.00 | 71 | 1015.6 |
| 20260507094525 | 13 | 169 | 4.8 | 14.5 | 0.00 | 0.00 | 0.00 | 73 | 1015.7 |
| 20260507093034 | 13 | 125 | 1.6 | 12.9 | 0.00 | 0.00 | 0.00 | 75 | 1015.7 |
| 20260507091527 | 12 | 89 | 3.2 | 12.9 | 0.00 | 0.00 | 0.00 | 78 | 1015.7 |
| 20260507090016 | 12 | 123 | 1.6 | 6.4 | 0.00 | 0.00 | 0.00 | 79 | 1015.8 |
| 20260507084521 | 11 | 117 | 1.6 | 12.9 | 0.00 | 0.00 | 0.00 | 80 | 1015.8 |
| 20260507083028 | 11 | 102 | 1.6 | 11.3 | 0.00 | 0.00 | 0.00 | 81 | 1015.8 |
| 20260507081535 | 10 | 74 | 3.2 | 11.3 | 0.00 | 0.00 | 0.00 | 83 | 1015.9 |
| 20260507080027 | 10 | 92 | 1.6 | 11.3 | 0.00 | 0.00 | 0.00 | 84 | 1015.8 |
| 20260507074518 | 9 | 107 | 1.6 | 11.3 | 0.00 | 0.00 | 0.00 | 85 | 1015.8 |
| 20260507073024 | 8 | 109 | 0.0 | 6.4 | 0.00 | 0.00 | 0.00 | 86 | 1015.8 |
| 20260507071528 | 8 | 109 | 0.0 | 9.7 | 0.00 | 0.00 | 0.00 | 86 | 1015.7 |
| 20260507070012 | 7 | 103 | 0.0 | 11.3 | 0.00 | 0.00 | 0.00 | 87 | 1015.6 |
| 20260507064517 | 7 | 248 | 0.0 | 6.4 | 0.00 | 0.00 | 0.00 | 87 | 1015.7 |
| 20260507063018 | 7 | 172 | 0.0 | 12.9 | 0.00 | 0.00 | 0.00 | 87 | 1015.5 |
| 20260507061506 | 7 | 127 | 1.6 | 12.9 | 0.00 | 0.00 | 0.00 | 86 | 1015.5 |
| 20260507060011 | 7 | 103 | 0.0 | 4.8 | 0.00 | 0.00 | 0.00 | 86 | 1015.5 |
| 20260507054515 | 7 | 88 | 0.0 | 6.4 | 0.00 | 0.00 | 0.00 | 86 | 1015.5 |
| 20260507053020 | 7 | 87 | 0.0 | 4.8 | 0.00 | 0.00 | 0.00 | 86 | 1015.3 |
| 20260507051522 | 7 | 88 | 0.0 | 4.8 | 0.00 | 0.00 | 0.00 | 86 | 1015.3 |
| 20260507050008 | 7 | 88 | 0.0 | 0.0 | 0.00 | 0.00 | 0.00 | 85 | 1015.3 |
| 20260507044512 | 7 | 88 | 0.0 | 3.2 | 0.00 | 0.00 | 0.00 | 85 | 1015.2 |
| 20260507043018 | 7 | 88 | 0.0 | 0.0 | 0.00 | 0.00 | 0.00 | 85 | 1015.1 |
| 20260507041536 | 7 | 88 | 0.0 | 4.8 | 0.00 | 0.00 | 0.00 | 84 | 1015.2 |
| 20260507040023 | 7 | 88 | 0.0 | 6.4 | 0.00 | 0.00 | 0.00 | 84 | 1015.2 |
| 20260507034512 | 7 | 88 | 0.0 | 9.7 | 0.00 | 0.00 | 0.00 | 84 | 1015.2 |
| 20260507033014 | 7 | 87 | 0.0 | 4.8 | 0.00 | 0.00 | 0.00 | 84 | 1015.1 |
| 20260507031516 | 7 | 88 | 0.0 | 3.2 | 0.00 | 0.00 | 0.00 | 83 | 1015.2 |
| 20260507030020 | 7 | 88 | 0.0 | 4.8 | 0.00 | 0.00 | 0.00 | 83 | 1015.2 |
| 20260507024524 | 7 | 87 | 0.0 | 3.2 | 0.00 | 0.00 | 0.00 | 83 | 1015.1 |
| 20260507023009 | 7 | 88 | 0.0 | 3.2 | 0.00 | 0.00 | 0.00 | 82 | 1015.2 |
| 20260507021514 | 7 | 87 | 0.0 | 4.8 | 0.00 | 0.00 | 0.00 | 82 | 1015.2 |
| 20260507020018 | 7 | 87 | 1.6 | 6.4 | 0.00 | 0.00 | 0.00 | 82 | 1015.2 |
| 20260507014537 | 7 | 88 | 0.0 | 0.0 | 0.00 | 0.00 | 0.00 | 81 | 1015.2 |
| 20260507013038 | 7 | 87 | 0.0 | 0.0 | 0.00 | 0.00 | 0.00 | 81 | 1015.2 |
| 20260507011518 | 7 | 87 | 0.0 | 0.0 | 0.00 | 0.00 | 0.00 | 81 | 1015.2 |
| 20260507010013 | 7 | 88 | 0.0 | 6.4 | 0.00 | 0.00 | 0.00 | 81 | 1015.1 |
| 20260507004521 | 7 | 88 | 0.0 | 0.0 | 0.00 | 0.00 | 0.00 | 80 | 1015.2 |
| 20260507003024 | 7 | 87 | 0.0 | 0.0 | 0.00 | 0.00 | 0.00 | 80 | 1015.3 |
| 20260507001525 | 7 | 87 | 0.0 | 0.0 | 0.00 | 0.00 | 0.00 | 79 | 1015.3 |
| 20260507000022 | 7 | 87 | 0.0 | 0.0 | 0.00 | 0.00 | 0.00 | 79 | 1015.3 |
| 20260506234517 | 7 | 87 | 0.0 | 0.0 | 0.00 | 0.00 | 0.00 | 78 | 1015.3 |
| 20260506233023 | 6 | 87 | 0.0 | 0.0 | 0.00 | 0.00 | 0.00 | 77 | 1015.3 |
| 20260506231527 | 7 | 88 | 0.0 | 0.0 | 0.00 | 0.00 | 0.00 | 76 | 1015.3 |
| 20260506230030 | 7 | 88 | 0.0 | 0.0 | 0.00 | 0.00 | 0.00 | 76 | 1015.3 |
| 20260506224516 | 7 | 87 | 0.0 | 0.0 | 0.00 | 0.00 | 0.00 | 75 | 1015.4 |
| 20260506223020 | 7 | 88 | 0.0 | 0.0 | 0.00 | 0.00 | 0.00 | 74 | 1015.2 |
| 20260506221525 | 7 | 88 | 0.0 | 0.0 | 0.00 | 0.00 | 0.00 | 74 | 1015.2 |
| 20260506220024 | 7 | 88 | 0.0 | 0.0 | 0.00 | 0.00 | 0.00 | 73 | 1014.9 |
| 20260506214527 | 7 | 88 | 0.0 | 0.0 | 0.00 | 0.00 | 0.00 | 72 | 1014.9 |
| 20260506213015 | 7 | 88 | 0.0 | 0.0 | 0.00 | 0.00 | 0.00 | 71 | 1014.9 |
| 20260506211519 | 8 | 87 | 0.0 | 0.0 | 0.00 | 0.00 | 0.00 | 70 | 1014.8 |
| 20260506210021 | 8 | 87 | 0.0 | 0.0 | 0.00 | 0.00 | 0.00 | 68 | 1014.6 |
| 20260506204526 | 9 | 87 | 0.0 | 0.0 | 0.00 | 0.00 | 0.00 | 68 | 1014.6 |
| 20260506203037 | 10 | 87 | 0.0 | 1.6 | 0.00 | 0.00 | 0.00 | 66 | 1014.5 |
| 20260506201518 | 10 | 88 | 0.0 | 0.0 | 0.00 | 0.00 | 0.00 | 65 | 1014.3 |
| 20260506200023 | 11 | 87 | 0.0 | 0.0 | 0.00 | 0.00 | 0.00 | 64 | 1014.3 |
| 20260506194522 | 11 | 87 | 0.0 | 0.0 | 0.00 | 0.00 | 0.00 | 62 | 1014.0 |
| 20260506193026 | 12 | 88 | 0.0 | 0.0 | 0.00 | 0.00 | 0.00 | 61 | 1013.8 |
| 20260506191529 | 12 | 87 | 0.0 | 6.4 | 0.00 | 0.00 | 0.00 | 59 | 1013.7 |
| 20260506190020 | 13 | 87 | 0.0 | 1.6 | 0.00 | 0.00 | 0.00 | 59 | 1013.7 |
| 20260506184523 | 13 | 87 | 0.0 | 3.2 | 0.00 | 0.00 | 0.00 | 58 | 1013.7 |
| 20260506183028 | 13 | 87 | 0.0 | 6.4 | 0.00 | 0.00 | 0.00 | 55 | 1013.7 |
| 20260506181532 | 14 | 70 | 1.6 | 6.4 | 0.00 | 0.00 | 0.00 | 56 | 1013.6 |
| 20260506180035 | 14 | 71 | 0.0 | 6.4 | 0.00 | 0.00 | 0.00 | 55 | 1013.5 |
| 20260506174519 | 15 | 85 | 0.0 | 12.9 | 0.00 | 0.00 | 0.00 | 53 | 1013.4 |
| 20260506173026 | 15 | 63 | 1.6 | 8.0 | 0.00 | 0.00 | 0.00 | 50 | 1013.4 |
| 20260506171538 | 15 | 72 | 1.6 | 9.7 | 0.00 | 0.00 | 0.00 | 48 | 1013.4 |
| 20260506170028 | 16 | 53 | 0.0 | 6.4 | 0.00 | 0.00 | 0.00 | 47 | 1013.3 |
| 20260506164528 | 16 | 42 | 1.6 | 8.0 | 0.00 | 0.00 | 0.00 | 48 | 1013.3 |
| 20260506163027 | 17 | 46 | 1.6 | 12.9 | 0.00 | 0.00 | 0.00 | 47 | 1013.3 |
| 20260506161536 | 17 | 55 | 1.6 | 8.0 | 0.00 | 0.00 | 0.00 | 46 | 1013.3 |
| 20260506160026 | 17 | 338 | 4.8 | 12.9 | 0.00 | 0.00 | 0.00 | 46 | 1013.3 |
| 20260506154529 | 17 | 44 | 1.6 | 9.7 | 0.00 | 0.00 | 0.00 | 46 | 1013.4 |